FFT202 KPHL-KCLE

Flight info

Callsign FFT202
Flight time N/A
Altitude 36000
Route PTW SARAA RAV PSB UPPRR TRYBE4
Aircraft A320/M-SDE3FGHIRWY/LB1

Departure

Time 2026-05-05 00:54
Airport Philadelphia International Airport (KPHL)

Arrival

Time N/A
Airport Cleveland Hopkins International Airport (KCLE)
Time Latitude Longitude Altitude Speed Heading
2026-05-05 00:42 39.87745 -75.23748 23 ft 0 kts 31°
2026-05-05 00:46 39.87746 -75.23748 22 ft 0 kts 31°
2026-05-05 00:47 39.87712 -75.23783 23 ft 0 kts 55°
2026-05-05 00:47 39.87747 -75.23747 22 ft 0 kts 31°
2026-05-05 00:48 39.87741 -75.23752 24 ft 2 kts 31°
2026-05-05 00:48 39.87726 -75.23763 24 ft 2 kts 43°
2026-05-05 00:48 39.87716 -75.23781 22 ft 2 kts 63°
2026-05-05 00:49 39.87708 -75.23801 22 ft 2 kts 89°
2026-05-05 00:49 39.87708 -75.23823 22 ft 2 kts 107°
2026-05-05 00:49 39.87710 -75.23830 22 ft 0 kts 124°
2026-05-05 00:49 39.87682 -75.23776 22 ft 16 kts 124°
2026-05-05 00:50 39.87621 -75.23661 22 ft 15 kts 124°
2026-05-05 00:50 39.87566 -75.23610 23 ft 0 kts 162°
2026-05-05 00:50 39.87564 -75.23609 22 ft 2 kts 163°
2026-05-05 00:51 39.87475 -75.23675 24 ft 24 kts 226°
2026-05-05 00:51 39.87407 -75.23844 22 ft 15 kts 253°
2026-05-05 00:51 39.87329 -75.23855 24 ft 14 kts 131°
2026-05-05 00:51 39.87230 -75.23794 22 ft 18 kts 166°
2026-05-05 00:52 39.87093 -75.23748 22 ft 16 kts 149°
2026-05-05 00:52 39.87108 -75.23629 23 ft 14 kts 69°
2026-05-05 00:52 39.87138 -75.23516 21 ft 13 kts 71°
2026-05-05 00:52 39.87114 -75.23464 22 ft 6 kts 164°
2026-05-05 00:53 39.87079 -75.23453 22 ft 5 kts 167°
2026-05-05 00:53 39.87022 -75.23435 22 ft 20 kts 165°
2026-05-05 00:53 39.86927 -75.23409 21 ft 19 kts 189°
2026-05-05 00:53 39.86874 -75.23559 22 ft 24 kts 256°
2026-05-05 00:54 39.86763 -75.24110 21 ft 101 kts 256°
2026-05-05 00:54 39.86425 -75.25758 92 ft 172 kts 254°
2026-05-05 00:54 39.86102 -75.27264 829 ft 174 kts 255°
2026-05-05 00:54 39.86230 -75.28816 1682 ft 181 kts 300°
2026-05-05 00:55 39.86852 -75.29615 2123 ft 196 kts 329°
2026-05-05 00:55 39.88159 -75.30403 2560 ft 219 kts 331°
2026-05-05 00:55 39.89588 -75.31363 2963 ft 243 kts 328°
2026-05-05 00:55 39.91142 -75.32488 3514 ft 267 kts 326°
2026-05-05 00:56 39.92831 -75.33747 4067 ft 292 kts 326°
2026-05-05 00:56 39.94669 -75.35133 4583 ft 318 kts 326°
2026-05-05 00:56 39.96651 -75.36639 4931 ft 343 kts 326°
2026-05-05 00:56 39.98724 -75.38208 5033 ft 341 kts 326°
2026-05-05 00:57 40.00694 -75.39681 5158 ft 311 kts 326°
2026-05-05 00:57 40.02535 -75.41057 5278 ft 308 kts 326°
2026-05-05 00:57 40.04471 -75.42530 5644 ft 335 kts 326°
2026-05-05 00:57 40.06554 -75.44124 5971 ft 360 kts 326°
2026-05-05 00:58 40.08786 -75.45828 6235 ft 382 kts 326°
2026-05-05 00:58 40.11111 -75.47592 6786 ft 389 kts 326°
2026-05-05 00:58 40.13465 -75.49371 7527 ft 391 kts 326°
2026-05-05 00:58 40.15761 -75.51100 8976 ft 371 kts 326°
2026-05-05 00:59 39.87747 -75.23747 23 ft 0 kts 31°
2026-05-05 00:59 39.87748 -75.23747 22 ft 0 kts 26°